Location: Puketoi
(40.5833°S, 176.0167°E)
Time: 15:01:20
(UTC+00:00)

Cosmos 2369 Rocket - Pass Details

Date: 08 February 2023
Orbit: 829 x 852 km, 71.0° (Epoch: 22 March)

Event Time Altitude Azimuth Distance (km) Brightness Sun altitude
Exits shadow 12:47:59 45° 191° (S) 1,163 3.1 -34.3°
Drops below altitude 10° 12:52:12 10° 164° (SSE) 2,511 5.4 -34.2°
Sets 12:54:43 0° 159° (SSE) 3,455 6.4 -34.2°
